スペースウォッチ-リニア彗星

475P/Spacewatch-LINEAR (2024)

English version
Home page
Updated on June 5, 2024

---------------------------------------------------------------------

・ プロフィール

符号 475P/2023 V7
検出日 2023年11月11日、13日、25日、2024年1月17日
検出光度 20.8等、19.8等、20.6等、20.1等
検出者 M. Micheli (European Space Agency's Optical Ground Station at Tenerife), F. Ocana (Calar Alto Schmidt telescope), Pan-STARRS 2 telescope (Haleakala), M. Jaeger (Vienna)

・ 写真集

・ 軌道要素

Epoch 2024 Mar. 31.0 TT = JDT 2460400.5
T 2024 June 1.64617 TT                                  Rudenko
q   4.0774719            (2000.0)            P               Q
n   0.04989057     Peri.   40.39717     -0.97963933     +0.14840232
a   7.3078629      Node   147.37754     -0.17276601     -0.96621824
e   0.4420432      Incl.   14.52597     +0.10226776     -0.21071084
P  19.8
>From 136 observations 2004 Feb. 11-2024 Mar. 17, mean residual 0".7.

・ 光度変化

        m1 = 10.5 + 5 logΔ + 10.0 log r

---------------------------------------------------------------------

軌道要素はM.P.E.C. 2024-F34に掲載されたものです。
光度グラフはComet for Windowsで作成したものです。

---------------------------------------------------------------------

Copyright(C) Seiichi Yoshida (comet@aerith.net). All rights reserved.